Time,TemperatureF,DewpointF,PressureIn,WindDirection,WindDirectionDegrees,WindSpeedMPH,WindSpeedGustMPH,Humidity,HourlyPrecipIn,Conditions,Clouds,dailyrainin,SoftwareType,DateUTC
2013-05-24 00:03:00,65.0,-99.9,-100.00,North,-999,-999.0,-999.0,-999,0.01,,,0.16,,2013-05-24 04:03:00,
2013-05-24 00:13:00,65.0,-99.9,-100.00,North,-999,-999.0,-999.0,-999,0.01,,,0.16,,2013-05-24 04:13:00,
2013-05-24 00:23:00,65.0,-99.9,-100.00,North,-999,-999.0,-999.0,-999,0.01,,,0.16,,2013-05-24 04:23:00,
2013-05-24 00:30:00,65.0,-99.9,-100.00,North,-999,-999.0,-999.0,-999,0.02,,,0.18,,2013-05-24 04:30:00,
2013-05-24 01:03:00,65.0,-99.9,-100.00,North,-999,-999.0,-999.0,-999,0.02,,,0.18,,2013-05-24 05:03:00,
2013-05-24 01:12:00,65.0,-99.9,-100.00,North,-999,-999.0,-999.0,-999,0.02,,,0.18,,2013-05-24 05:12:00,
2013-05-24 01:22:00,65.0,-99.9,-100.00,North,-999,-999.0,-999.0,-999,0.02,,,0.18,,2013-05-24 05:22:00,
2013-05-24 01:30:00,64.0,-99.9,-100.00,North,-999,-999.0,-999.0,-999,0.02,,,0.20,,2013-05-24 05:30:00,
2013-05-24 02:02:00,64.0,-99.9,-100.00,North,-999,-999.0,-999.0,-999,0.02,,,0.20,,2013-05-24 06:02:00,
2013-05-24 02:12:00,64.0,-99.9,-100.00,North,-999,-999.0,-999.0,-999,0.02,,,0.20,,2013-05-24 06:12:00,
2013-05-24 02:22:00,64.0,-99.9,-100.00,North,-999,-999.0,-999.0,-999,0.02,,,0.20,,2013-05-24 06:22:00,
2013-05-24 02:30:00,64.0,-99.9,-100.00,North,-999,-999.0,-999.0,-999,0.02,,,0.21,,2013-05-24 06:30:00,
2013-05-24 03:02:00,64.0,-99.9,-100.00,North,-999,-999.0,-999.0,-999,0.02,,,0.21,,2013-05-24 07:02:00,
2013-05-24 03:12:00,64.0,-99.9,-100.00,North,-999,-999.0,-999.0,-999,0.02,,,0.21,,2013-05-24 07:12:00,
2013-05-24 03:22:00,64.0,-99.9,-100.00,North,-999,-999.0,-999.0,-999,0.02,,,0.21,,2013-05-24 07:22:00,
2013-05-24 03:30:00,64.0,-99.9,-100.00,North,-999,-999.0,-999.0,-999,0.02,,,0.23,,2013-05-24 07:30:00,
2013-05-24 04:02:00,64.0,-99.9,-100.00,North,-999,-999.0,-999.0,-999,0.02,,,0.23,,2013-05-24 08:02:00,
2013-05-24 04:12:00,64.0,-99.9,-100.00,North,-999,-999.0,-999.0,-999,0.02,,,0.23,,2013-05-24 08:12:00,
2013-05-24 04:22:00,64.0,-99.9,-100.00,North,-999,-999.0,-999.0,-999,0.02,,,0.23,,2013-05-24 08:22:00,
2013-05-24 04:30:00,63.0,-99.9,-100.00,North,-999,-999.0,-999.0,-999,0.02,,,0.25,,2013-05-24 08:30:00,
2013-05-24 05:02:00,63.0,-99.9,-100.00,North,-999,-999.0,-999.0,-999,0.02,,,0.25,,2013-05-24 09:02:00,
2013-05-24 05:12:00,63.0,-99.9,-100.00,North,-999,-999.0,-999.0,-999,0.02,,,0.25,,2013-05-24 09:12:00,
2013-05-24 05:22:00,63.0,-99.9,-100.00,North,-999,-999.0,-999.0,-999,0.02,,,0.25,,2013-05-24 09:22:00,
2013-05-24 05:30:00,63.0,-99.9,-100.00,North,-999,-999.0,-999.0,-999,0.01,,,0.26,,2013-05-24 09:30:00,
2013-05-24 06:03:00,63.0,-99.9,-100.00,North,-999,-999.0,-999.0,-999,0.01,,,0.26,,2013-05-24 10:03:00,
2013-05-24 06:12:00,63.0,-99.9,-100.00,North,-999,-999.0,-999.0,-999,0.01,,,0.26,,2013-05-24 10:12:00,
2013-05-24 06:23:00,63.0,-99.9,-100.00,North,-999,-999.0,-999.0,-999,0.01,,,0.26,,2013-05-24 10:23:00,
2013-05-24 06:30:00,63.0,-99.9,-100.00,North,-999,-999.0,-999.0,-999,0.02,,,0.28,,2013-05-24 10:30:00,
2013-05-24 07:03:00,63.0,-99.9,-100.00,North,-999,-999.0,-999.0,-999,0.02,,,0.28,,2013-05-24 11:03:00,
2013-05-24 07:12:00,63.0,-99.9,-100.00,North,-999,-999.0,-999.0,-999,0.02,,,0.28,,2013-05-24 11:12:00,
2013-05-24 07:23:00,63.0,-99.9,-100.00,North,-999,-999.0,-999.0,-999,0.02,,,0.28,,2013-05-24 11:23:00,
2013-05-24 07:30:00,64.0,-99.9,-100.00,North,-999,-999.0,-999.0,-999,0.01,,,0.29,,2013-05-24 11:30:00,
2013-05-24 08:02:00,64.0,-99.9,-100.00,North,-999,-999.0,-999.0,-999,0.01,,,0.29,,2013-05-24 12:02:00,
2013-05-24 08:12:00,64.0,-99.9,-100.00,North,-999,-999.0,-999.0,-999,0.01,,,0.29,,2013-05-24 12:12:00,
2013-05-24 08:22:00,64.0,-99.9,-100.00,North,-999,-999.0,-999.0,-999,0.01,,,0.29,,2013-05-24 12:22:00,
2013-05-24 08:30:00,66.0,-99.9,-100.00,North,-999,-999.0,-999.0,-999,0.01,,,0.29,,2013-05-24 12:30:00,
2013-05-24 09:02:00,66.0,-99.9,-100.00,North,-999,-999.0,-999.0,-999,0.01,,,0.29,,2013-05-24 13:02:00,
2013-05-24 09:11:00,66.0,-99.9,-100.00,North,-999,-999.0,-999.0,-999,0.01,,,0.29,,2013-05-24 13:11:00,
2013-05-24 09:22:00,66.0,-99.9,-100.00,North,-999,-999.0,-999.0,-999,0.01,,,0.29,,2013-05-24 13:22:00,
2013-05-24 09:30:00,66.0,-99.9,-100.00,North,-999,-999.0,-999.0,-999,0.01,,,0.30,,2013-05-24 13:30:00,
2013-05-24 10:02:00,66.0,-99.9,-100.00,North,-999,-999.0,-999.0,-999,0.01,,,0.30,,2013-05-24 14:02:00,
2013-05-24 10:11:00,66.0,-99.9,-100.00,North,-999,-999.0,-999.0,-999,0.01,,,0.30,,2013-05-24 14:11:00,
2013-05-24 10:22:00,66.0,-99.9,-100.00,North,-999,-999.0,-999.0,-999,0.01,,,0.30,,2013-05-24 14:22:00,
2013-05-24 10:30:00,66.0,-99.9,-100.00,North,-999,-999.0,-999.0,-999,0.00,,,0.30,,2013-05-24 14:30:00,
2013-05-24 11:02:00,66.0,-99.9,-100.00,North,-999,-999.0,-999.0,-999,0.00,,,0.30,,2013-05-24 15:02:00,
2013-05-24 11:11:00,66.0,-99.9,-100.00,North,-999,-999.0,-999.0,-999,0.00,,,0.30,,2013-05-24 15:11:00,
2013-05-24 11:22:00,66.0,-99.9,-100.00,North,-999,-999.0,-999.0,-999,0.00,,,0.30,,2013-05-24 15:22:00,
2013-05-24 11:30:00,69.0,-99.9,-100.00,North,-999,-999.0,-999.0,-999,0.00,,,0.30,,2013-05-24 15:30:00,
2013-05-24 12:03:00,69.0,-99.9,-100.00,North,-999,-999.0,-999.0,-999,0.00,,,0.30,,2013-05-24 16:03:00,
2013-05-24 12:13:00,69.0,-99.9,-100.00,North,-999,-999.0,-999.0,-999,0.00,,,0.30,,2013-05-24 16:13:00,
2013-05-24 12:23:00,69.0,-99.9,-100.00,North,-999,-999.0,-999.0,-999,0.00,,,0.30,,2013-05-24 16:23:00,
2013-05-24 12:30:00,66.0,-99.9,-100.00,North,-999,-999.0,-999.0,-999,0.00,,,0.30,,2013-05-24 16:30:00,
2013-05-24 13:02:00,66.0,-99.9,-100.00,North,-999,-999.0,-999.0,-999,0.00,,,0.30,,2013-05-24 17:02:00,
2013-05-24 13:12:00,66.0,-99.9,-100.00,North,-999,-999.0,-999.0,-999,0.00,,,0.30,,2013-05-24 17:12:00,
2013-05-24 13:22:00,66.0,-99.9,-100.00,North,-999,-999.0,-999.0,-999,0.00,,,0.30,,2013-05-24 17:22:00,
2013-05-24 13:30:00,62.0,-99.9,-100.00,North,-999,-999.0,-999.0,-999,0.00,,,0.30,,2013-05-24 17:30:00,
2013-05-24 14:02:00,62.0,-99.9,-100.00,North,-999,-999.0,-999.0,-999,0.00,,,0.30,,2013-05-24 18:02:00,
2013-05-24 14:12:00,62.0,-99.9,-100.00,North,-999,-999.0,-999.0,-999,0.00,,,0.30,,2013-05-24 18:12:00,
2013-05-24 14:22:00,62.0,-99.9,-100.00,North,-999,-999.0,-999.0,-999,0.00,,,0.30,,2013-05-24 18:22:00,
2013-05-24 14:30:00,61.0,-99.9,-100.00,North,-999,-999.0,-999.0,-999,0.00,,,0.30,,2013-05-24 18:30:00,
2013-05-24 15:02:00,61.0,-99.9,-100.00,North,-999,-999.0,-999.0,-999,0.00,,,0.30,,2013-05-24 19:02:00,
2013-05-24 15:12:00,61.0,-99.9,-100.00,North,-999,-999.0,-999.0,-999,0.00,,,0.30,,2013-05-24 19:12:00,
2013-05-24 15:22:00,61.0,-99.9,-100.00,North,-999,-999.0,-999.0,-999,0.00,,,0.30,,2013-05-24 19:22:00,
2013-05-24 15:30:00,62.0,-99.9,-100.00,North,-999,-999.0,-999.0,-999,0.00,,,0.30,,2013-05-24 19:30:00,
2013-05-24 16:02:00,62.0,-99.9,-100.00,North,-999,-999.0,-999.0,-999,0.00,,,0.30,,2013-05-24 20:02:00,
2013-05-24 16:12:00,62.0,-99.9,-100.00,North,-999,-999.0,-999.0,-999,0.00,,,0.30,,2013-05-24 20:12:00,
2013-05-24 16:22:00,62.0,-99.9,-100.00,North,-999,-999.0,-999.0,-999,0.00,,,0.30,,2013-05-24 20:22:00,
2013-05-24 16:30:00,61.0,-99.9,-100.00,North,-999,-999.0,-999.0,-999,0.00,,,0.27,,2013-05-24 20:30:00,
2013-05-24 17:02:00,61.0,-99.9,-100.00,North,-999,-999.0,-999.0,-999,0.00,,,0.27,,2013-05-24 21:02:00,
2013-05-24 17:12:00,61.0,-99.9,-100.00,North,-999,-999.0,-999.0,-999,0.00,,,0.27,,2013-05-24 21:12:00,
2013-05-24 17:22:00,61.0,-99.9,-100.00,North,-999,-999.0,-999.0,-999,0.00,,,0.27,,2013-05-24 21:22:00,
2013-05-24 17:30:00,57.0,-99.9,-100.00,North,-999,-999.0,-999.0,-999,0.00,,,0.24,,2013-05-24 21:30:00,
2013-05-24 18:03:00,57.0,-99.9,-100.00,North,-999,-999.0,-999.0,-999,0.00,,,0.24,,2013-05-24 22:03:00,
2013-05-24 18:12:00,57.0,-99.9,-100.00,North,-999,-999.0,-999.0,-999,0.00,,,0.24,,2013-05-24 22:12:00,
2013-05-24 18:23:00,57.0,-99.9,-100.00,North,-999,-999.0,-999.0,-999,0.00,,,0.24,,2013-05-24 22:23:00,
2013-05-24 18:30:00,55.0,-99.9,-100.00,North,-999,-999.0,-999.0,-999,0.00,,,0.22,,2013-05-24 22:30:00,
2013-05-24 19:03:00,55.0,-99.9,-100.00,North,-999,-999.0,-999.0,-999,0.00,,,0.22,,2013-05-24 23:03:00,
2013-05-24 19:12:00,55.0,-99.9,-100.00,North,-999,-999.0,-999.0,-999,0.00,,,0.22,,2013-05-24 23:12:00,
2013-05-24 19:22:00,55.0,-99.9,-100.00,North,-999,-999.0,-999.0,-999,0.00,,,0.22,,2013-05-24 23:22:00,
2013-05-24 19:30:00,52.0,-99.9,-100.00,North,-999,-999.0,-999.0,-999,0.00,,,0.21,,2013-05-24 23:30:00,
2013-05-24 20:02:00,52.0,-99.9,-100.00,North,-999,-999.0,-999.0,-999,0.00,,,0.21,,2013-05-25 00:02:00,
2013-05-24 20:12:00,52.0,-99.9,-100.00,North,-999,-999.0,-999.0,-999,0.00,,,0.21,,2013-05-25 00:12:00,
2013-05-24 20:22:00,52.0,-99.9,-100.00,North,-999,-999.0,-999.0,-999,0.00,,,0.21,,2013-05-25 00:22:00,
2013-05-24 20:30:00,51.0,-99.9,-100.00,North,-999,-999.0,-999.0,-999,0.00,,,0.19,,2013-05-25 00:30:00,
2013-05-24 21:02:00,51.0,-99.9,-100.00,North,-999,-999.0,-999.0,-999,0.00,,,0.19,,2013-05-25 01:02:00,
2013-05-24 21:11:00,51.0,-99.9,-100.00,North,-999,-999.0,-999.0,-999,0.00,,,0.19,,2013-05-25 01:11:00,
2013-05-24 21:22:00,51.0,-99.9,-100.00,North,-999,-999.0,-999.0,-999,0.00,,,0.19,,2013-05-25 01:22:00,
2013-05-24 21:30:00,50.0,-99.9,-100.00,North,-999,-999.0,-999.0,-999,0.00,,,0.18,,2013-05-25 01:30:00,
2013-05-24 22:02:00,50.0,-99.9,-100.00,North,-999,-999.0,-999.0,-999,0.00,,,0.18,,2013-05-25 02:02:00,
2013-05-24 22:12:00,50.0,-99.9,-100.00,North,-999,-999.0,-999.0,-999,0.00,,,0.18,,2013-05-25 02:12:00,
2013-05-24 22:22:00,50.0,-99.9,-100.00,North,-999,-999.0,-999.0,-999,0.00,,,0.18,,2013-05-25 02:22:00,
2013-05-24 22:30:00,49.0,-99.9,-100.00,North,-999,-999.0,-999.0,-999,0.00,,,0.17,,2013-05-25 02:30:00,
2013-05-24 23:02:00,49.0,-99.9,-100.00,North,-999,-999.0,-999.0,-999,0.00,,,0.17,,2013-05-25 03:02:00,
2013-05-24 23:12:00,49.0,-99.9,-100.00,North,-999,-999.0,-999.0,-999,0.00,,,0.17,,2013-05-25 03:12:00,
2013-05-24 23:22:00,49.0,-99.9,-100.00,North,-999,-999.0,-999.0,-999,0.00,,,0.17,,2013-05-25 03:22:00,
2013-05-24 23:30:00,48.0,-99.9,-100.00,North,-999,-999.0,-999.0,-999,0.01,,,0.17,,2013-05-25 03:30:00,